Weather in Vozherovo

Russia / Kostroma Oblast     58°38′16″N   44°02′17″E
temp.,
°C
wind,
m/s
gust,
m/s
humid.,
%
clouds,
%
prec.,
mm/h
press.,
hPa
HPBL,
m
4 december, sat
sat400:00−1se3998100 1.6 1000477
03:00−1se3998100 4.8 996481
06:000s3999100 2.6 993662
09:00−1wsw6119080 3.9 994890
12:00−3sw51088100 0.1 9971001
15:00−4sw5119499 0.3 998855
18:00−5w41095100 0.5 1000793
21:00−11wnw4892100 0.8 1005533
5 december, sun
sun500:00−15nw3893100 0.1 1009416
03:00−17nw379666 0.1 1012266
06:00−19nw26989 0.0 1015146
09:00−21nnw269826 0.0 1018132
12:00−17nnw248955 0.0 1019260
15:00−19nw11975 0.0 10219
18:00−21nnw25995 0.0 102286
21:00−22nnw13996 0.0 102447
6 december, mon
mon600:00−23nnw11996 0.0 102534
03:00−23n13997 0.0 102646
06:00−24nne13997 0.0 102747
09:00−23ne24995 0.0 102970
12:00−17e23885 0.0 1029177
15:00−18ene24975 0.0 103077
18:00−19e27985 0.0 1031128
21:00−19ese27975 0.0 1031147
7 december, tue
tue700:00−19ese399554 0.0 1031169
03:00−17ese3992100 0.0 1031207
06:00−14ese41191100 0.0 1030280
09:00−12ese41391100 0.0 1029345
12:00−10ese51589100 0.0 1027430
15:00−9ese61791100 0.2 1025645
18:00−8ese71993100 2.5 1021815
21:00−7ese71693100 5.3 1019815
8 december, wed
wed800:00−6ese61394100 1.7 1017673
03:00−6ese51295100 4.9 1015518
06:00−5ese41095100 1.6 1014370
09:00−4ese3896100 1.9 1014257
12:00−3se2598100 0.4 1014167
15:00−1s1599100 0.9 1014322
18:000wsw2498100 0.3 1015442
21:00−4wnw3695100 0.4 1017298